Hourly Weather Ondjiwa

Today, 25 September, Friday

Time Temperature Precipitation Wind Pressure Humidity
00:00 +24°C° 0 mm 1 mps 667 mmHg 19%
01:00 +23°C° 0 mm 2 mps 667 mmHg 20%
02:00 +22°C° 0 mm 1 mps 667 mmHg 22%
03:00 +21°C° 0 mm 1 mps 666 mmHg 24%
04:00 +18°C° 0 mm 0 mps 666 mmHg 26%
05:00 +21°C° 0 mm 1 mps 667 mmHg 24%
06:00 +22°C° 0 mm 1 mps 668 mmHg 23%
07:00 +24°C° 0 mm 1 mps 669 mmHg 22%
08:00 +28°C° 0 mm 1 mps 669 mmHg 18%
09:00 +31°C° 0 mm 1 mps 670 mmHg 14%
10:00 +35°C° 0 mm 1 mps 670 mmHg 11%
11:00 +37°C° 0 mm 1 mps 670 mmHg 10%
12:00 +39°C° 0 mm 1 mps 669 mmHg 9%
13:00 +41°C° 0 mm 1 mps 668 mmHg 8%
14:00 +40°C° 0 mm 1 mps 668 mmHg 8%
15:00 +40°C° 0 mm 1 mps 667 mmHg 8%
16:00 +39°C° 0 mm 1 mps 666 mmHg 8%
17:00 +36°C° 0 mm 2 mps 666 mmHg 10%
18:00 +32°C° 0 mm 2 mps 665 mmHg 11%
19:00 +29°C° 0 mm 3 mps 665 mmHg 13%
20:00 +29°C° 0 mm 3 mps 665 mmHg 14%
21:00 +28°C° 0 mm 3 mps 666 mmHg 14%
22:00 +27°C° 0 mm 3 mps 666 mmHg 15%
23:00 +26°C° 0 mm 3 mps 666 mmHg 18%

Tomorrow, 26 September, Saturday

Time Temperature Precipitation Wind Pressure Humidity
00:00 +24°C° 0 mm 3 mps 665 mmHg 22%
01:00 +21°C° 0 mm 3 mps 665 mmHg 26%
02:00 +20°C° 0 mm 3 mps 665 mmHg 29%
03:00 +18°C° 0 mm 2 mps 665 mmHg 32%
04:00 +18°C° 0 mm 1 mps 664 mmHg 35%
05:00 +19°C° 0 mm 1 mps 665 mmHg 32%
06:00 +20°C° 0 mm 1 mps 666 mmHg 29%
07:00 +21°C° 0 mm 1 mps 666 mmHg 26%
08:00 +25°C° 0 mm 2 mps 667 mmHg 20%
09:00 +28°C° 0 mm 3 mps 668 mmHg 15%
10:00 +33°C° 0 mm 4 mps 668 mmHg 10%
11:00 +35°C° 0 mm 4 mps 668 mmHg 9%
12:00 +37°C° 0 mm 4 mps 667 mmHg 9%
13:00 +38°C° 0 mm 4 mps 666 mmHg 8%
14:00 +38°C° 0 mm 4 mps 666 mmHg 8%
15:00 +38°C° 0 mm 4 mps 665 mmHg 8%
16:00 +38°C° 0 mm 4 mps 665 mmHg 8%
17:00 +35°C° 0 mm 3 mps 664 mmHg 9%
18:00 +31°C° 0 mm 3 mps 664 mmHg 11%
19:00 +29°C° 0 mm 2 mps 664 mmHg 13%
20:00 +28°C° 0 mm 3 mps 664 mmHg 14%
21:00 +27°C° 0 mm 5 mps 665 mmHg 15%
22:00 +26°C° 0 mm 6 mps 665 mmHg 16%
23:00 +23°C° 0 mm 5 mps 665 mmHg 19%

Day after tomorrow, 27 September, Sunday

Time Temperature Precipitation Wind Pressure Humidity
00:00 +22°C° 0 mm 5 mps 664 mmHg 22%
01:00 +20°C° 0 mm 4 mps 664 mmHg 25%
02:00 +19°C° 0 mm 3 mps 664 mmHg 25%
03:00 +17°C° 0 mm 3 mps 663 mmHg 25%
04:00 +16°C° 0 mm 2 mps 663 mmHg 26%
05:00 +16°C° 0 mm 1 mps 664 mmHg 24%
06:00 +18°C° 0 mm 1 mps 665 mmHg 23%
07:00 +17°C° 0 mm 0 mps 665 mmHg 21%
08:00 +23°C° 0 mm 1 mps 666 mmHg 17%
09:00 +26°C° 0 mm 1 mps 667 mmHg 13%
10:00 +30°C° 0 mm 2 mps 668 mmHg 9%
11:00 +33°C° 0 mm 3 mps 667 mmHg 8%
12:00 +35°C° 0 mm 3 mps 666 mmHg 7%
13:00 +37°C° 0 mm 3 mps 666 mmHg 7%
14:00 +37°C° 0 mm 4 mps 665 mmHg 7%
15:00 +37°C° 0 mm 4 mps 665 mmHg 7%
16:00 +37°C° 0 mm 4 mps 664 mmHg 7%
17:00 +34°C° 0 mm 3 mps 664 mmHg 8%
18:00 +31°C° 0 mm 3 mps 664 mmHg 10%
19:00 +28°C° 0 mm 2 mps 664 mmHg 11%
20:00 +27°C° 0 mm 3 mps 664 mmHg 10%
21:00 +26°C° 0 mm 4 mps 665 mmHg 9%
22:00 +25°C° 0 mm 5 mps 665 mmHg 8%
23:00 +22°C° 0 mm 4 mps 665 mmHg 9%

28 September, Monday

Time Temperature Precipitation Wind Pressure Humidity
00:00 +20°C° 0 mm 4 mps 664 mmHg 11%
01:00 +19°C° 0 mm 4 mps 664 mmHg 12%
02:00 +17°C° 0 mm 3 mps 664 mmHg 14%
03:00 +16°C° 0 mm 3 mps 664 mmHg 17%
04:00 +15°C° 0 mm 2 mps 664 mmHg 19%
05:00 +16°C° 0 mm 2 mps 665 mmHg 18%
06:00 +17°C° 0 mm 2 mps 666 mmHg 16%
07:00 +20°C° 0 mm 1 mps 667 mmHg 15%
08:00 +24°C° 0 mm 2 mps 667 mmHg 11%
09:00 +28°C° 0 mm 2 mps 668 mmHg 8%
10:00 +32°C° 0 mm 2 mps 669 mmHg 5%
11:00 +35°C° 0 mm 2 mps 668 mmHg 4%
12:00 +37°C° 0 mm 3 mps 668 mmHg 4%
13:00 +39°C° 0 mm 3 mps 667 mmHg 4%
14:00 +39°C° 0 mm 3 mps 667 mmHg 4%
15:00 +40°C° 0 mm 4 mps 666 mmHg 4%
16:00 +40°C° 0 mm 4 mps 666 mmHg 5%
17:00 +36°C° 0 mm 4 mps 665 mmHg 6%
18:00 +33°C° 0 mm 4 mps 665 mmHg 8%
19:00 +28°C° 0 mm 4 mps 665 mmHg 9%
20:00 +27°C° 0 mm 4 mps 665 mmHg 9%
21:00 +27°C° 0 mm 4 mps 666 mmHg 9%
22:00 +26°C° 0 mm 5 mps 666 mmHg 10%
23:00 +23°C° 0 mm 4 mps 666 mmHg 11%

29 September, Tuesday

Time Temperature Precipitation Wind Pressure Humidity
00:00 +21°C° 0 mm 4 mps 665 mmHg 12%
01:00 +20°C° 0 mm 3 mps 665 mmHg 13%
02:00 +19°C° 0 mm 3 mps 665 mmHg 15%
03:00 +17°C° 0 mm 3 mps 665 mmHg 17%
04:00 +16°C° 0 mm 2 mps 665 mmHg 19%
05:00 +17°C° 0 mm 2 mps 666 mmHg 18%
06:00 +18°C° 0 mm 2 mps 666 mmHg 18%
07:00 +20°C° 0 mm 2 mps 667 mmHg 17%
08:00 +25°C° 0 mm 2 mps 668 mmHg 13%
09:00 +29°C° 0 mm 3 mps 668 mmHg 10%
10:00 +35°C° 0 mm 3 mps 669 mmHg 6%
11:00 +36°C° 0 mm 3 mps 668 mmHg 6%
12:00 +38°C° 0 mm 3 mps 668 mmHg 5%
13:00 +40°C° 0 mm 3 mps 667 mmHg 5%
14:00 +40°C° 0 mm 3 mps 667 mmHg 5%
15:00 +40°C° 0 mm 3 mps 666 mmHg 5%
16:00 +40°C° 0 mm 3 mps 665 mmHg 5%
17:00 +37°C° 0 mm 3 mps 665 mmHg 7%
18:00 +33°C° 0 mm 3 mps 665 mmHg 8%
19:00 +29°C° 0 mm 4 mps 664 mmHg 10%
20:00 +28°C° 0 mm 4 mps 665 mmHg 10%
21:00 +27°C° 0 mm 4 mps 665 mmHg 10%
22:00 +27°C° 0 mm 4 mps 666 mmHg 10%
23:00 +25°C° 0 mm 4 mps 665 mmHg 11%

30 September, Wednesday

Time Temperature Precipitation Wind Pressure Humidity
00:00 +22°C° 0 mm 4 mps 665 mmHg 13%
01:00 +21°C° 0 mm 4 mps 664 mmHg 14%
02:00 +19°C° 0 mm 3 mps 664 mmHg 17%
03:00 +18°C° 0 mm 3 mps 664 mmHg 19%
04:00 +17°C° 0 mm 2 mps 664 mmHg 22%
05:00 +18°C° 0 mm 2 mps 664 mmHg 21%
06:00 +19°C° 0 mm 1 mps 665 mmHg 20%
07:00 +20°C° 0 mm 1 mps 666 mmHg 19%
08:00 +25°C° 0 mm 1 mps 666 mmHg 15%
09:00 +29°C° 0 mm 1 mps 667 mmHg 11%
10:00 +34°C° 0 mm 2 mps 668 mmHg 7%
11:00 +36°C° 0 mm 2 mps 667 mmHg 6%
12:00 +38°C° 0 mm 3 mps 666 mmHg 5%
13:00 +39°C° 0 mm 3 mps 666 mmHg 5%
14:00 +40°C° 0 mm 4 mps 665 mmHg 5%
15:00 +40°C° 0 mm 4 mps 664 mmHg 5%
16:00 +40°C° 0 mm 4 mps 664 mmHg 5%
17:00 +36°C° 0 mm 4 mps 663 mmHg 6%
18:00 +32°C° 0 mm 4 mps 663 mmHg 7%
19:00 +28°C° 0 mm 3 mps 663 mmHg 9%
20:00 +27°C° 0 mm 4 mps 663 mmHg 10%
21:00 +27°C° 0 mm 5 mps 664 mmHg 11%
22:00 +26°C° 0 mm 6 mps 665 mmHg 13%
23:00 +23°C° 0 mm 5 mps 664 mmHg 18%
Show more